カタログに戻る

NULINK-1

運用中通信SSO
NORAD 69002·PAYLOAD·🇬🇷 Greece

打ち上げ May 3, 2026 から Vandenberg Space Force Base

Loading…

次のパス (今後24時間)

TLE

最新Source: Space-Track

元期: Sep 13, 2026, 15:54 UTC

1 69002U 26100Y   26256.66274194  .00001074  00000-0  10906-3 0  9997
2 69002  97.7228 152.5951 0003244  68.6136 291.5429 14.92869826 19899

AllMySatでNULINK-1をリアルタイム追跡

Download on the App Store